Location: *
(32.8667°N, 13.1833°E)
Time: 05:08:05
(UTC+00:00)

USA 229 DEB - Pass Details

Date: 18 July 2019
Orbit: 1003 x 1210 km, 63.4° (Epoch: 18 August)

Event Time Altitude Azimuth Distance (km) Brightness Sun altitude
Rises 19:36:17 0° 188° (S) 3,709 6.2 -15.3°
Reaches altitude 10° 19:38:58 10° 182° (S) 2,767 5.5 -15.7°
Maximum altitude 19:45:01 43° 113° (ESE) 1,405 3.9 -16.7°
Drops below altitude 10° 19:51:15 10° 44° (NE) 2,857 5.9 -17.7°
Sets 19:54:03 0° 38° (NE) 3,842 6.7 -18.1°
